VE1DX Weather Reports


Display with metric or nautical units.
time (UTC)temp
F
wind
direction
speed
MPH
gust
MPH
rain 1hr
in
rain 24hr
in
rain mn
in
humidity
%
barometer
mb
20260904050517 64 0.0 3.0 0.01 0.03 0.02 100 1014.6
20260904050017 64 135 1.0 2.0 0.01 0.03 0.02 100 1014.7
20260904045517 64 135 1.0 4.0 0.01 0.03 0.02 99 1014.8
20260904045017 63 113 1.0 3.0 0.01 0.03 0.02 99 1014.8
20260904044517 63 0.0 2.0 0.01 0.03 0.02 99 1015.0
20260904044017 63 0.0 1.0 0.00 0.02 0.02 98 1015.1
20260904043517 63 0.0 1.0 0.00 0.02 0.02 98 1015.1
20260904043017 63 0.0 1.0 0.00 0.02 0.02 98 1015.2
20260904042517 63 0.0 1.0 0.00 0.02 0.02 98 1015.3
20260904042017 63 0.0 1.0 0.00 0.02 0.02 98 1015.3
20260904041517 63 0.0 1.0 0.01 0.02 0.02 98 1015.5
20260904041017 64 0.0 1.0 0.02 0.02 0.02 98 1015.6
20260904040517 64 0.0 2.0 0.02 0.02 0.02 98 1015.7
20260904040017 64 0.0 2.0 0.02 0.02 0.02 98 1015.7
20260904035517 64 0.0 1.0 0.02 0.02 0.02 98 1015.7
20260904035017 64 113 1.0 3.0 0.02 0.02 0.02 98 1015.6
20260904034517 64 0.0 1.0 0.02 0.02 0.02 98 1015.7
20260904034017 64 0.0 1.0 0.02 0.02 0.02 97 1015.7
20260904033517 64 0.0 1.0 0.02 0.02 0.02 96 1015.6
20260904033017 64 135 1.0 4.0 0.02 0.02 0.02 94 1015.7
20260904032517 65 113 1.0 4.0 0.02 0.02 0.02 94 1015.7
20260904032017 65 0.0 3.0 0.02 0.02 0.02 96 1015.9
20260904031517 65 0.0 3.0 0.01 0.02 0.01 95 1016.0
20260904031017 65 0.0 1.0 0.00 0.01 0.00 95 1016.0
20260904030517 66 0.0 1.0 0.00 0.01 0.00 95 1016.0
20260904030017 66 158 1.0 2.0 0.00 0.01 0.01 96 1016.0
20260904025515 66 113 1.0 4.0 0.00 0.01 0.01 96 1016.0
20260904025015 65 135 1.0 2.0 0.00 0.01 0.01 96 1016.1
20260904024515 65 135 1.0 2.0 0.00 0.01 0.01 96 1016.1
20260904024015 65 113 1.0 3.0 0.00 0.01 0.01 97 1016.1
20260904023515 65 0.0 2.0 0.00 0.01 0.01 97 1016.2
20260904023015 65 0.0 2.0 0.00 0.01 0.01 97 1016.3
20260904022516 65 0.0 1.0 0.00 0.01 0.01 97 1016.4
20260904022015 65 0.0 2.0 0.00 0.01 0.01 97 1016.4
20260904021515 65 0.0 2.0 0.00 0.01 0.01 97 1016.5
20260904021015 65 0.0 0.0 0.00 0.01 0.01 97 1016.6
20260904020515 65 0.0 1.0 0.00 0.01 0.01 97 1016.6
20260904020015 65 0.0 1.0 0.00 0.01 0.01 97 1016.7
20260904015515 64 0.0 1.0 0.00 0.01 0.01 97 1016.8
20260904015015 64 0.0 1.0 0.00 0.01 0.01 97 1017.0
20260904014515 64 0.0 1.0 0.00 0.01 0.01 96 1017.0
20260904014015 64 0.0 2.0 0.00 0.01 0.01 96 1017.1
20260904013516 64 0.0 2.0 0.00 0.01 0.01 96 1017.1
20260904013015 64 0.0 3.0 0.00 0.01 0.01 97 1017.2
20260904012516 64 0.0 0.0 0.00 0.01 0.01 97 1017.3
20260904012015 64 0.0 0.0 0.00 0.01 0.01 98 1017.5
20260904011515 64 0.0 0.0 0.00 0.02 0.01 98 1017.6
20260904011016 64 0.0 1.0 0.00 0.02 0.01 97 1017.7
20260904010515 64 0.0 1.0 0.00 0.02 0.01 97 1017.7
20260904010015 64 0.0 1.0 0.00 0.02 0.01 97 1017.8
20260904005515 64 0.0 1.0 0.00 0.02 0.01 97 1017.8
20260904005015 64 0.0 1.0 0.00 0.02 0.01 97 1017.9
20260904004516 64 0.0 1.0 0.00 0.02 0.01 97 1017.9
20260904004016 64 0.0 0.0 0.00 0.02 0.01 97 1018.0
20260904003515 64 0.0 0.0 0.00 0.02 0.01 97 1018.0
20260904003015 63 0.0 0.0 0.00 0.02 0.01 97 1018.1
20260904002515 63 0.0 0.0 0.00 0.02 0.01 97 1018.0
20260904002015 63 0.0 0.0 0.00 0.02 0.01 97 1018.1
20260904001515 63 0.0 0.0 0.00 0.02 0.01 97 1018.1
20260904001015 63 0.0 0.0 0.00 0.02 0.01 97 1018.1
20260904000515 63 0.0 0.0 0.00 0.02 0.01 97 1018.1
20260904000015 63 0.0 0.0 0.00 0.02 0.01 97 1018.1
20260903235515 63 0.0 0.0 0.00 0.02 0.01 97 1018.1
20260903235015 63 0.0 0.0 0.00 0.02 0.01 97 1018.2
20260903234515 63 0.0 0.0 0.00 0.02 0.01 97 1018.3
20260903234016 63 0.0 0.0 0.00 0.02 0.01 97 1018.3
20260903233515 63 0.0 0.0 0.00 0.02 0.01 97 1018.2
20260903233016 63 0.0 0.0 0.00 0.02 0.01 97 1018.3
20260903232515 63 0.0 0.0 0.00 0.02 0.01 97 1018.3
20260903232015 63 0.0 0.0 0.00 0.02 0.01 97 1018.3
20260903231515 63 0.0 0.0 0.00 0.02 0.01 97 1018.3
20260903231015 63 0.0 0.0 0.00 0.02 0.01 97 1018.4
20260903230515 63 0.0 0.0 0.00 0.02 0.01 97 1018.3
20260903230015 63 0.0 0.0 0.00 0.02 0.01 97 1018.4
20260903225515 63 0.0 0.0 0.00 0.02 0.01 97 1018.5
20260903225015 63 0.0 0.0 0.00 0.02 0.01 97 1018.4
20260903224515 63 0.0 0.0 0.00 0.02 0.01 97 1018.3
20260903224015 64 0.0 0.0 0.00 0.02 0.01 97 1018.4
20260903223516 64 0.0 0.0 0.00 0.02 0.01 97 1018.4
20260903223015 64 0.0 0.0 0.00 0.02 0.01 97 1018.4
20260903222516 64 0.0 0.0 0.00 0.02 0.01 97 1018.5
20260903222015 64 0.0 1.0 0.00 0.02 0.01 97 1018.5
20260903221516 64 0.0 1.0 0.00 0.02 0.01 96 1018.6
20260903221015 64 0.0 0.0 0.00 0.02 0.01 96 1018.7
20260903220515 64 0.0 1.0 0.01 0.02 0.01 96 1018.8
20260903220015 64 0.0 1.0 0.01 0.02 0.01 96 1018.8
20260903215516 64 0.0 0.0 0.01 0.02 0.01 96 1018.8
20260903215015 64 0.0 0.0 0.01 0.02 0.01 96 1018.9
20260903214515 64 0.0 0.0 0.01 0.02 0.01 96 1018.9
20260903214016 64 0.0 0.0 0.01 0.02 0.01 95 1018.9
20260903213515 64 0.0 0.0 0.01 0.02 0.01 95 1018.9
20260903213015 64 0.0 1.0 0.01 0.02 0.01 95 1019.0
20260903212515 65 0.0 0.0 0.01 0.02 0.01 94 1019.0
20260903212016 65 0.0 0.0 0.01 0.02 0.01 93 1019.0
20260903211515 65 0.0 0.0 0.01 0.02 0.01 93 1019.0
20260903211015 65 0.0 1.0 0.01 0.02 0.01 92 1019.2
20260903210515 65 0.0 2.0 0.00 0.01 0.00 91 1019.2
20260903210016 66 0.0 1.0 0.00 0.01 0.00 90 1019.2
20260903205515 66 0.0 1.0 0.00 0.01 0.00 89 1019.2
20260903205015 66 0.0 1.0 0.00 0.01 0.00 88 1019.3
20260903204515 66 0.0 1.0 0.00 0.01 0.00 87 1019.3
20260903204015 66 0.0 2.0 0.00 0.01 0.00 86 1019.3
20260903203515 66 0.0 2.0 0.00 0.01 0.00 86 1019.4
20260903203015 67 0.0 2.0 0.00 0.01 0.00 86 1019.4
20260903202515 67 0.0 0.0 0.00 0.01 0.00 86 1019.4
20260903202015 67 0.0 1.0 0.00 0.01 0.00 85 1019.6
20260903201516 67 0.0 1.0 0.00 0.01 0.00 84 1019.6
20260903201015 67 135 1.0 2.0 0.00 0.01 0.00 84 1019.6
20260903200515 67 0.0 1.0 0.00 0.01 0.00 84 1019.6
20260903200015 67 135 1.0 4.0 0.00 0.01 0.00 84 1019.7
20260903195515 67 0.0 2.0 0.00 0.01 0.00 84 1019.7
20260903195015 67 113 1.0 3.0 0.00 0.01 0.00 84 1019.8
20260903194515 67 113 1.0 2.0 0.00 0.01 0.00 84 1019.8
20260903194016 67 113 1.0 4.0 0.00 0.01 0.00 84 1019.8
20260903193515 67 113 1.0 3.0 0.00 0.01 0.00 83 1019.8
20260903193015 67 135 1.0 2.0 0.00 0.01 0.00 84 1019.9
20260903192515 67 113 1.0 4.0 0.00 0.01 0.00 83 1019.9
20260903192015 67 135 2.0 4.0 0.00 0.01 0.00 83 1020.0
20260903191515 68 113 1.0 3.0 0.00 0.01 0.00 83 1020.0
20260903191015 68 135 1.0 5.0 0.00 0.01 0.00 84 1020.0
20260903190515 68 113 1.0 5.0 0.00 0.01 0.00 83 1020.0
20260903190015 68 135 1.0 4.0 0.00 0.01 0.00 85 1020.1
20260903185515 68 135 1.0 3.0 0.00 0.01 0.00 83 1020.2
20260903185015 68 0.0 4.0 0.00 0.01 0.00 83 1020.3
20260903184515 68 0.0 1.0 0.00 0.01 0.00 84 1020.4
20260903184015 68 113 1.0 4.0 0.00 0.01 0.00 83 1020.5
20260903183516 68 135 1.0 3.0 0.00 0.01 0.00 83 1020.6
20260903183015 68 0.0 2.0 0.00 0.01 0.00 83 1020.6
20260903182515 68 113 1.0 2.0 0.00 0.01 0.00 83 1020.6
20260903182015 68 0.0 2.0 0.00 0.01 0.00 83 1020.7
20260903181515 68 0.0 3.0 0.00 0.01 0.00 82 1020.8
20260903181015 68 113 1.0 3.0 0.00 0.01 0.00 84 1020.8
20260903180515 68 135 2.0 4.0 0.00 0.01 0.00 83 1020.9
20260903180015 68 113 1.0 2.0 0.00 0.01 0.00 84 1020.9
20260903175515 67 135 1.0 3.0 0.00 0.01 0.00 84 1021.0
20260903175015 67 113 1.0 4.0 0.00 0.01 0.00 83 1021.0
20260903174515 67 113 1.0 3.0 0.00 0.01 0.00 83 1021.0
20260903174015 67 158 1.0 3.0 0.00 0.01 0.00 83 1021.0
20260903173515 67 113 1.0 3.0 0.00 0.01 0.00 83 1021.0
20260903173015 67 113 2.0 3.0 0.00 0.01 0.00 83 1021.1
20260903172515 67 158 1.0 2.0 0.00 0.01 0.00 83 1021.1
20260903172016 67 135 2.0 4.0 0.00 0.01 0.00 82 1021.2
20260903171515 67 135 2.0 5.0 0.00 0.01 0.00 81 1021.2
20260903171015 68 135 2.0 4.0 0.00 0.01 0.00 81 1021.2
20260903170515 68 135 1.0 4.0 0.00 0.01 0.00 82 1021.2
20260903170015 68 135 1.0 4.0 0.00 0.01 0.00 81 1021.2
20260903165515 68 113 1.0 5.0 0.00 0.01 0.00 81 1021.2
20260903165015 68 113 1.0 4.0 0.00 0.01 0.00 81 1021.3
20260903164515 68 135 2.0 5.0 0.00 0.01 0.00 81 1021.4
20260903164015 68 135 2.0 7.0 0.00 0.01 0.00 81 1021.4
20260903163515 68 135 2.0 5.0 0.00 0.01 0.00 81 1021.4
20260903163015 68 135 1.0 4.0 0.00 0.01 0.00 82 1021.5
20260903162515 68 135 1.0 3.0 0.00 0.01 0.00 83 1021.4
20260903162015 68 113 1.0 3.0 0.00 0.01 0.00 82 1021.5
20260903161515 68 135 1.0 5.0 0.00 0.01 0.00 83 1021.5
20260903161015 68 135 1.0 5.0 0.00 0.01 0.00 83 1021.5
20260903160515 68 135 2.0 4.0 0.00 0.01 0.00 83 1021.4
20260903160015 68 113 2.0 5.0 0.00 0.01 0.00 82 1021.5
20260903155515 68 0.0 1.0 0.00 0.01 0.00 83 1021.6
20260903155015 68 135 1.0 3.0 0.00 0.01 0.00 83 1021.6
20260903154515 68 135 1.0 8.0 0.00 0.01 0.00 84 1021.7
20260903154015 68 113 1.0 3.0 0.00 0.01 0.00 83 1021.7
20260903153515 68 0.0 2.0 0.00 0.01 0.00 84 1021.7
20260903153015 68 0.0 3.0 0.00 0.01 0.00 83 1021.8
20260903152515 68 135 1.0 3.0 0.00 0.01 0.00 84 1021.9
20260903152015 68 135 1.0 2.0 0.00 0.01 0.00 83 1021.9
20260903151515 68 0.0 3.0 0.00 0.01 0.00 84 1021.8
20260903151015 68 158 1.0 3.0 0.00 0.01 0.00 83 1021.8
20260903150515 68 135 1.0 4.0 0.00 0.01 0.00 83 1021.7
20260903150015 68 135 1.0 3.0 0.00 0.01 0.00 82 1021.8
20260903145515 68 113 2.0 5.0 0.00 0.01 0.00 83 1021.7
20260903145015 68 135 2.0 4.0 0.00 0.01 0.00 83 1021.8
20260903144515 68 135 1.0 3.0 0.00 0.01 0.00 82 1021.7
20260903144016 68 113 1.0 3.0 0.00 0.01 0.00 81 1021.8
20260903143515 68 113 2.0 5.0 0.00 0.01 0.00 82 1021.9
20260903143016 69 135 2.0 5.0 0.00 0.01 0.00 81 1021.8
20260903142515 68 113 2.0 6.0 0.00 0.01 0.00 81 1021.9
20260903142015 69 158 2.0 6.0 0.00 0.01 0.00 81 1022.0
20260903141515 68 113 2.0 6.0 0.00 0.01 0.00 83 1022.0
20260903141016 68 135 2.0 5.0 0.00 0.01 0.00 83 1022.1
20260903140515 68 135 1.0 4.0 0.00 0.01 0.00 84 1022.1
20260903140015 68 158 1.0 3.0 0.00 0.01 0.00 86 1022.2
20260903135515 67 0.0 4.0 0.00 0.01 0.00 88 1022.2
20260903135015 67 113 1.0 3.0 0.00 0.01 0.00 87 1022.2
20260903134515 67 135 2.0 6.0 0.00 0.01 0.00 88 1022.1
20260903134015 66 113 1.0 2.0 0.00 0.01 0.00 89 1022.1
20260903133515 66 135 1.0 3.0 0.00 0.01 0.00 90 1022.1
20260903133015 66 113 1.0 3.0 0.00 0.01 0.00 90 1022.2
20260903132515 66 0.0 1.0 0.00 0.01 0.00 91 1022.2
20260903132015 65 0.0 1.0 0.00 0.01 0.00 91 1022.2
20260903131515 65 0.0 2.0 0.00 0.01 0.00 91 1022.2
20260903131015 65 135 1.0 6.0 0.00 0.01 0.00 91 1022.1
20260903130515 65 0.0 1.0 0.00 0.01 0.00 91 1022.1
20260903130015 65 0.0 2.0 0.00 0.01 0.00 92 1022.1
20260903125515 65 0.0 3.0 0.00 0.01 0.00 93 1022.0
20260903125015 65 0.0 1.0 0.00 0.01 0.00 95 1022.0
20260903124515 65 0.0 0.0 0.00 0.01 0.00 96 1022.0
20260903124015 65 0.0 1.0 0.00 0.01 0.00 97 1022.1
20260903123515 65 0.0 1.0 0.00 0.01 0.00 98 1022.1
20260903123015 65 0.0 1.0 0.00 0.01 0.00 98 1022.1
20260903122515 65 0.0 1.0 0.00 0.01 0.00 99 1022.2
20260903122015 64 0.0 1.0 0.00 0.01 0.00 100 1022.2
20260903121515 64 0.0 1.0 0.00 0.01 0.00 100 1022.2
20260903121015 64 0.0 1.0 0.00 0.01 0.00 100 1022.3
20260903120515 63 0.0 1.0 0.00 0.01 0.00 100 1022.4
20260903120015 63 0.0 0.0 0.00 0.01 0.00 100 1022.5
20260903115516 63 0.0 0.0 0.00 0.01 0.00 100 1022.5
20260903115015 63 0.0 0.0 0.00 0.01 0.00 100 1022.5
20260903114515 63 0.0 0.0 0.00 0.01 0.00 100 1022.6
20260903114015 62 0.0 0.0 0.00 0.01 0.00 100 1022.5
20260903113515 62 0.0 0.0 0.00 0.01 0.00 100 1022.6
20260903113015 62 0.0 0.0 0.00 0.01 0.00 100 1022.5
20260903112515 62 0.0 0.0 0.00 0.01 0.00 100 1022.5
20260903112015 62 0.0 0.0 0.00 0.01 0.00 100 1022.5
20260903111516 61 0.0 0.0 0.00 0.01 0.00 100 1022.5
20260903111015 61 0.0 0.0 0.00 0.01 0.00 100 1022.5
20260903110515 61 0.0 0.0 0.00 0.01 0.00 100 1022.5
20260903110015 61 0.0 0.0 0.00 0.01 0.00 100 1022.6
20260903105515 61 0.0 0.0 0.00 0.01 0.00 100 1022.6
20260903105015 61 0.0 0.0 0.00 0.01 0.00 100 1022.6
20260903104515 61 0.0 0.0 0.00 0.01 0.00 100 1022.6
20260903104015 60 0.0 0.0 0.00 0.01 0.00 100 1022.6
20260903103515 60 0.0 0.0 0.00 0.01 0.00 100 1022.6
20260903103015 60 0.0 0.0 0.00 0.01 0.00 100 1022.5
20260903102515 60 0.0 0.0 0.00 0.01 0.00 100 1022.5
20260903102015 60 0.0 0.0 0.00 0.01 0.00 100 1022.5
20260903101515 60 0.0 0.0 0.00 0.01 0.00 100 1022.5
20260903101015 60 0.0 0.0 0.00 0.01 0.00 100 1022.5
20260903100515 60 0.0 0.0 0.00 0.01 0.00 100 1022.4
20260903100015 60 0.0 0.0 0.00 0.01 0.00 100 1022.4
20260903095515 60 0.0 0.0 0.00 0.01 0.00 100 1022.5
20260903095015 60 0.0 0.0 0.00 0.01 0.00 100 1022.6
20260903094515 60 0.0 0.0 0.00 0.01 0.00 100 1022.5
20260903094015 60 0.0 0.0 0.00 0.01 0.00 100 1022.5
20260903093515 60 0.0 0.0 0.00 0.01 0.00 100 1022.5
20260903093015 60 0.0 0.0 0.00 0.01 0.00 100 1022.5
20260903092516 60 0.0 0.0 0.00 0.01 0.00 100 1022.4
20260903092015 60 0.0 0.0 0.00 0.01 0.00 100 1022.5
20260903091515 59 0.0 0.0 0.00 0.01 0.00 100 1022.5
20260903091015 59 0.0 0.0 0.00 0.01 0.00 100 1022.6
20260903090515 59 0.0 0.0 0.00 0.01 0.00 100 1022.6
20260903090015 59 0.0 0.0 0.00 0.01 0.00 100 1022.7
20260903085515 59 0.0 0.0 0.00 0.01 0.00 100 1022.6
20260903085015 59 0.0 0.0 0.00 0.01 0.00 100 1022.5
20260903084515 59 0.0 0.0 0.00 0.01 0.00 100 1022.5
20260903084015 59 0.0 0.0 0.00 0.01 0.00 100 1022.6
20260903083515 59 0.0 0.0 0.00 0.01 0.00 100 1022.5
20260903083015 59 0.0 0.0 0.00 0.01 0.00 100 1022.5
20260903082515 59 0.0 0.0 0.00 0.01 0.00 100 1022.4
20260903082015 60 0.0 0.0 0.00 0.01 0.00 100 1022.5
20260903081515 60 0.0 0.0 0.00 0.01 0.00 100 1022.5
20260903081015 60 0.0 0.0 0.00 0.01 0.00 100 1022.6
20260903080515 60 0.0 0.0 0.00 0.01 0.00 100 1022.6
20260903080015 60 0.0 0.0 0.00 0.01 0.00 100 1022.6
20260903075517 60 0.0 0.0 0.00 0.01 0.00 100 1022.6
20260903075018 60 0.0 0.0 0.00 0.01 0.00 100 1022.6
20260903074517 60 0.0 0.0 0.00 0.01 0.00 100 1022.7
20260903074017 60 0.0 0.0 0.00 0.01 0.00 100 1022.8
20260903073517 60 0.0 0.0 0.00 0.01 0.00 100 1022.8
20260903073017 60 0.0 0.0 0.00 0.01 0.00 100 1022.9
20260903072517 60 0.0 0.0 0.00 0.01 0.00 100 1022.9
20260903072017 60 0.0 0.0 0.00 0.01 0.00 100 1022.8
20260903071517 60 0.0 0.0 0.00 0.01 0.00 100 1022.8
20260903071017 60 0.0 0.0 0.00 0.01 0.00 100 1022.8
20260903070517 59 0.0 0.0 0.00 0.01 0.00 100 1022.7
20260903070015 59 0.0 0.0 0.00 0.01 0.00 100 1022.7
20260903065515 59 0.0 0.0 0.00 0.01 0.00 100 1022.8
20260903065015 60 0.0 0.0 0.00 0.01 0.00 100 1022.8
20260903064515 59 0.0 0.0 0.00 0.01 0.00 100 1022.9
20260903064015 59 0.0 0.0 0.00 0.01 0.00 100 1022.9
20260903063515 59 0.0 0.0 0.00 0.01 0.00 100 1022.9
20260903063016 59 0.0 0.0 0.00 0.01 0.00 100 1022.9
20260903062515 59 0.0 0.0 0.00 0.01 0.00 100 1022.9
20260903062015 59 0.0 0.0 0.00 0.01 0.00 100 1022.8
20260903061515 58 0.0 1.0 0.00 0.01 0.00 100 1022.8
20260903061015 58 0.0 0.0 0.00 0.01 0.00 100 1022.7
20260903060516 58 0.0 0.0 0.00 0.01 0.00 100 1022.8
20260903060015 58 0.0 0.0 0.00 0.01 0.00 100 1022.8
20260903055515 58 0.0 0.0 0.00 0.01 0.00 100 1022.8
20260903055015 58 0.0 0.0 0.00 0.01 0.00 100 1022.7
20260903054515 58 0.0 0.0 0.00 0.01 0.00 100 1022.6
20260903054017 58 0.0 0.0 0.00 0.01 0.00 100 1022.5
20260903053517 58 0.0 0.0 0.00 0.01 0.00 100 1022.6
20260903053015 58 0.0 0.0 0.00 0.01 0.00 100 1022.6
20260903052515 58 0.0 0.0 0.00 0.01 0.00 100 1022.6
20260903052015 58 0.0 0.0 0.00 0.01 0.00 100 1022.7
20260903051515 58 0.0 0.0 0.00 0.01 0.00 100 1022.8
20260903051015 58 0.0 0.0 0.00 0.01 0.00 100 1022.9